Location: Albany
(35.0000°S, 118.0000°E)
Time: 16:29:28
(UTC-04:00)

Cosmos 1346 Rocket - Visible Passes

Search period start: 28 July 2014 00:00
Search period end: 07 August 2014 00:00
Orbit: 531 x 571 km, 81.2° (Epoch: 27 July)

Date Brightness Start Highest point End Pass type
(mag) Time Alt. Az. Time Alt. Az. Time Alt. Az.
31 Jul 5.2 06:50:47 10° SSE 06:51:01 11° SSE 06:51:01 11° SSE visible
01 Aug 3.6 06:46:39 10° S 06:49:36 32° SE 06:49:36 32° SE visible
01 Aug 6.0 08:24:52 10° WSW 08:25:36 12° WSW 08:25:36 12° WSW visible
02 Aug 3.2 06:42:33 10° S 06:46:25 41° ESE 06:50:11 10° NNE visible
02 Aug 6.1 08:21:27 10° WSW 08:22:30 11° W 08:23:34 10° WNW visible
03 Aug 3.0 06:38:26 10° S 06:42:23 47° E 06:46:13 10° NNE visible
04 Aug 2.9 06:34:21 10° S 06:38:21 53° E 06:42:14 10° NNE visible
05 Aug 2.8 06:30:16 10° S 06:34:18 62° E 06:38:13 10° NNE visible
06 Aug 2.7 06:26:12 10° S 06:30:15 71° E 06:34:12 10° NNE visible
